{"data":{"norad_id":65319,"epoch":"2026-09-20T21:54:45.935424Z","epoch_age_seconds":123132,"freshness":"FRESH","line1":"1 65319U 25188E   26263.91303166  .00000525  00000+0  56014-4 0  9997","line2":"2 65319  97.7247 337.3292 0008834 139.0639 221.1245 14.92867820 58192","mean_motion":14.9286782,"eccentricity":0.0008834,"inclination_deg":97.7247,"raan_deg":337.3292,"arg_perigee_deg":139.0639,"mean_anomaly_deg":221.1245,"bstar":5.6014e-5,"rev_number":5819,"period_min":96.458640256577,"perigee_km":582.84394582412,"apogee_km":595.15348120276,"semimajor_km":6967.1357135134,"source":"CELESTRAK","updated_at":"2026-09-21T09:00:15.250152Z"}}